Lid_Strength_Index
0 1 1 1 1 1 1 -0 -1 -0 0 1 1 -0 -0 0 1 0 0 0 0 1
0 0 1 0 0 1 1 0 1 1 1 1 1 1 0 -0 -0 -1 -0 -0 -0 0
0 0 0 0 1 1 1 1 2 1 1 1 0 0 -1 -1 -1 -0 -0 -0 -0 0
1 0 0 0 1 1 1 1 2 2 1 0 0 -1 -1 -0 -0 0 -0 -0 0 0
0 0 0 1 1 1 1 1 1 1 1 0 -0 -0 0 0 0 1 1 1 1 2
1 0 0 1 1 1 1 1 1 1 1 1 1 1 1 1 2 2 1 1 2 2
1 0 0 0 1 1 1 1 2 1 1 1 1 1 2 3 3 2 2 1 1 1
1 1 1 1 1 1 1 2 2 2 2 2 2 6 5 5 4 3 3 1 1 1
2 2 2 2 2 2 2 2 2 3 3 4 6 9 9 8 6 4 3 2 2 2
3 4 3 3 3 3 4 4 4 4 4 5 5 10 10 9 6 4 2 2 3 3
4 4 4 4 4 5 5 4 4 4 3 6 7 10 10 10 4 3 3 3 4 4
5 5 5 5 5 4 4 4 4 4 4 5 7 10 10 9 5 5 5 5 4 5
5 5 5 4 5 4 4 4 4 5 5 6 6 11 11 10 7 7 8 5 5 9
4 5 5 5 5 5 5 5 6 6 6 6 7 8 11 11 10 10 9 7 7 7